OE5XFR Weather Reports


Display with metric or nautical units.
time (UTC)temp
F
wind
direction
speed
MPH
gust
MPH
rain 1hr
in
rain 24hr
in
rain mn
in
humidity
%
barometer
mb
20260502123316 71 82 9.0 16.0 0.00 0.00 0.00 20 1022.0
20260502122115 71 109 6.0 15.0 0.00 0.00 0.00 20 1023.0
20260502120915 70 318 2.0 16.0 0.00 0.00 0.00 21 1022.0
20260502115714 69 76 8.0 11.0 0.00 0.00 0.00 24 1023.0
20260502114515 69 76 8.0 11.0 0.00 0.00 0.00 24 1023.0
20260502113315 68 57 9.0 15.0 0.00 0.00 0.00 25 1023.0
20260502112116 68 60 8.0 15.0 0.00 0.00 0.00 24 1023.0
20260502110916 67 60 10.0 16.0 0.00 0.00 0.00 26 1023.0
20260502105715 67 86 8.0 14.0 0.00 0.00 0.00 28 1024.0
20260502104515 66 50 10.0 16.0 0.00 0.00 0.00 27 1024.0
20260502103315 66 87 9.0 17.0 0.00 0.00 0.00 30 1024.0
20260502102116 65 59 10.0 16.0 0.00 0.00 0.00 31 1024.0
20260502100916 65 99 10.0 14.0 0.00 0.00 0.00 31 1024.0
20260502090915 63 57 15.0 19.0 0.00 0.00 0.00 33 1024.0
20260502070914 52 95 5.0 8.0 0.00 0.00 0.00 50 1025.0
20260502065714 51 42 7.0 8.0 0.00 0.00 0.00 53 1025.0
20260502064514 50 67 5.0 6.0 0.00 0.00 0.00 57 1025.0
20260502063314 49 76 4.0 6.0 0.00 0.00 0.00 59 1025.0
20260502062114 47 72 6.0 7.0 0.00 0.00 0.00 63 1025.0
20260502060914 44 58 6.0 6.0 0.00 0.00 0.00 71 1025.0
20260502055714 42 73 5.0 5.0 0.00 0.00 0.00 73 1025.0
20260502054514 42 73 5.0 5.0 0.00 0.00 0.00 73 1025.0
20260502053314 40 251 1.0 2.0 0.00 0.00 0.00 72 1025.0
20260502052114 40 67 1.0 2.0 0.00 0.00 0.00 72 1025.0
20260502050914 40 298 0.0 1.0 0.00 0.00 0.00 78 1025.0
20260502045714 39 193 0.0 2.0 0.00 0.00 0.00 80 1025.0
20260502044514 39 193 0.0 2.0 0.00 0.00 0.00 80 1025.0
20260502043314 38 193 1.0 2.0 0.00 0.00 0.00 76 1025.0
20260502042115 39 218 2.0 2.0 0.00 0.00 0.00 76 1025.0
20260502040915 39 207 2.0 2.0 0.00 0.00 0.00 78 1025.0
20260502035715 38 338 0.0 2.0 0.00 0.00 0.00 78 1025.0
20260502034515 39 228 2.0 2.0 0.00 0.00 0.00 73 1025.0
20260502033316 40 210 1.0 2.0 0.00 0.00 0.00 69 1025.0
20260502032119 40 92 1.0 2.0 0.00 0.00 0.00 70 1025.0
20260502030915 40 60 2.0 2.0 0.00 0.00 0.00 68 1025.0
20260502024515 41 281 1.0 2.0 0.00 0.00 0.00 68 1025.0
20260502023315 41 13 1.0 2.0 0.00 0.00 0.00 67 1025.0
20260502022115 41 181 1.0 2.0 0.00 0.00 0.00 66 1025.0
20260502020915 41 46 1.0 2.0 0.00 0.00 0.00 66 1025.0
20260502015716 41 287 2.0 3.0 0.00 0.00 0.00 66 1025.0
20260502014515 41 287 2.0 3.0 0.00 0.00 0.00 66 1025.0
20260502013315 41 222 2.0 3.0 0.00 0.00 0.00 66 1026.0
20260502012115 42 225 3.0 3.0 0.00 0.00 0.00 66 1026.0
20260502010915 43 236 2.0 3.0 0.00 0.00 0.00 67 1026.0
20260502005715 43 17 2.0 4.0 0.00 0.00 0.00 65 1026.0
20260502004515 43 51 3.0 3.0 0.00 0.00 0.00 64 1026.0
20260502003314 43 65 1.0 2.0 0.00 0.00 0.00 63 1026.0
20260502002114 44 76 1.0 1.0 0.00 0.00 0.00 63 1026.0
20260502000915 45 109 1.0 5.0 0.00 0.00 0.00 57 1026.0
20260501235714 46 62 4.0 5.0 0.00 0.00 0.00 56 1026.0
20260501234515 46 69 3.0 3.0 0.00 0.00 0.00 55 1026.0
20260501233315 47 79 1.0 3.0 0.00 0.00 0.00 53 1026.0
20260501232114 47 52 2.0 2.0 0.00 0.00 0.00 54 1026.0
20260501230914 47 57 2.0 4.0 0.00 0.00 0.00 54 1026.0
20260501225715 47 57 2.0 4.0 0.00 0.00 0.00 54 1026.0
20260501224515 47 128 1.0 3.0 0.00 0.00 0.00 56 1026.0
20260501223317 47 198 2.0 2.0 0.00 0.00 0.00 55 1026.0
20260501222115 47 206 2.0 3.0 0.00 0.00 0.00 55 1026.0
20260501220915 49 158 1.0 2.0 0.00 0.00 0.00 51 1026.0
20260501215714 49 74 2.0 3.0 0.00 0.00 0.00 49 1026.0
20260501214514 49 74 2.0 3.0 0.00 0.00 0.00 49 1026.0
20260501213315 50 34 2.0 2.0 0.00 0.00 0.00 49 1027.0
20260501212115 50 34 2.0 2.0 0.00 0.00 0.00 49 1027.0
20260501210914 51 63 2.0 2.0 0.00 0.00 0.00 47 1027.0
20260501205714 51 74 2.0 3.0 0.00 0.00 0.00 46 1027.0
20260501204515 52 177 2.0 3.0 0.00 0.00 0.00 46 1026.0
20260501203314 53 115 1.0 2.0 0.00 0.00 0.00 42 1026.0
20260501202115 53 74 2.0 3.0 0.00 0.00 0.00 40 1027.0
20260501200914 55 61 2.0 2.0 0.00 0.00 0.00 37 1027.0
20260501195714 56 71 2.0 3.0 0.00 0.00 0.00 36 1027.0
20260501194514 56 77 2.0 3.0 0.00 0.00 0.00 34 1027.0
20260501193314 57 47 3.0 4.0 0.00 0.00 0.00 33 1026.0
20260501192114 58 55 3.0 4.0 0.00 0.00 0.00 32 1027.0
20260501190914 58 39 3.0 4.0 0.00 0.00 0.00 32 1027.0
20260501185714 59 80 5.0 6.0 0.00 0.00 0.00 31 1026.0
20260501184514 59 80 5.0 6.0 0.00 0.00 0.00 31 1026.0
20260501183314 60 70 5.0 9.0 0.00 0.00 0.00 30 1026.0
20260501182114 60 50 9.0 11.0 0.00 0.00 0.00 29 1026.0
20260501180914 61 70 7.0 10.0 0.00 0.00 0.00 28 1026.0
20260501175714 61 50 7.0 12.0 0.00 0.00 0.00 28 1026.0
20260501174514 62 61 7.0 15.0 0.00 0.00 0.00 27 1026.0
20260501173314 62 75 6.0 16.0 0.00 0.00 0.00 26 1026.0
20260501172116 62 65 13.0 18.0 0.00 0.00 0.00 26 1026.0
20260501170916 63 48 15.0 22.0 0.00 0.00 0.00 25 1026.0
20260501165716 63 65 14.0 18.0 0.00 0.00 0.00 24 1026.0
20260501164516 63 71 10.0 18.0 0.00 0.00 0.00 24 1026.0
20260501163316 63 78 11.0 20.0 0.00 0.00 0.00 22 1026.0
20260501162116 63 76 15.0 20.0 0.00 0.00 0.00 21 1026.0
20260501160916 63 71 14.0 22.0 0.00 0.00 0.00 21 1026.0
20260501155716 64 67 13.0 17.0 0.00 0.00 0.00 23 1026.0
20260501154516 64 67 13.0 17.0 0.00 0.00 0.00 23 1026.0
20260501153316 63 103 14.0 16.0 0.00 0.00 0.00 22 1026.0
20260501152116 63 54 12.0 18.0 0.00 0.00 0.00 23 1026.0
20260501150916 63 90 12.0 18.0 0.00 0.00 0.00 22 1026.0